Location: *
(48.8667°N, 2.3331°E)
Time: 09:27:30
(UTC+00:00)

Cosmos 2061 Rocket - Pass Details

Date: 17 August 2020
Orbit: 966 x 1012 km, 82.9° (Epoch: 23 September)

Event Time Altitude Azimuth Distance (km) Brightness Sun altitude
Exits shadow 21:48:52 32° 191° (SSW) 1,608 4.8 -22.1°
Maximum altitude 21:52:00 86° 277° (W) 977 3.9 -22.4°
Drops below altitude 10° 21:58:15 10° 9° (N) 2,722 7.0 -23.0°
Sets 22:00:46 0° 10° (N) 3,676 7.8 -23.2°
